Regional Weather Roundup
Issued by NWS

Home | Current Version | Previous Version | Text Only | Print | Product List | Glossary Off
Versions: 1 2 3 4 5 6 7 8 9 10 11 12 13 14 15 16 17 18 19 20 21 22 23 24 25 26 27 28 29 30 31 32 33 34 35 36 37 38 39 40 41 42 43 44 45 46 47 48 49 50

000
ASUS43 KMPX 091410
RWRMN
WEATHER ROUNDUP FOR MINNESOTA
NATIONAL WEATHER SERVICE TWIN CITIES/CHANHASSEN MN
800 AM CST TUE FEB 09 2016


NOTE: "FAIR" INDICATES FEW OR NO CLOUDS BELOW 12,000 FEET WITH NO
SIGNIFICANT WEATHER AND/OR OBSTRUCTIONS TO VISIBILITY. N/A MEANS
CURRENT SKY AND/OR WEATHER CONDITIONS ARE NOT AVAILABLE.

MNZ060>063-068>070-091500-
   Twin Cities Metro

CITY           SKY/WX    TMP DP  RH WIND       PRES   REMARKS
TWIN CITIES    PTCLDY     5  -2  72 NW18      30.10R WCI -15
ST PAUL        CLEAR      5  -3  69 NW15      30.11R WCI -13
CRYSTAL        CLEAR      6  -3  66 NW14G22   30.10R WCI -11
BLAINE         PTCLDY     7   0  72 NW14      30.08R WCI -10
LAKEVILLE      CLEAR      3  -2  78 NW15      30.08R WCI -15
EDEN PRAIRIE   CLEAR      6  -3  66 NW16G22   30.09R WCI -12
SOUTH ST PAUL  PTCLDY     6  -2  68 NW10G17   30.10R WCI  -9
LAKE ELMO      FAIR       5   0  78 N9        30.08R WCI  -9
$$
MNZ001>005-007-008-013>017-022>024-027-028-091500-
   Northwest Minnesota

CITY           SKY/WX    TMP DP  RH WIND       PRES   REMARKS
BEMIDJI        FLURRIES  -7 -11  84 NW6       30.16S WCI -20
HALLOCK        CLOUDY     7   0  72 N15       30.30R WCI -11
ROSEAU         CLOUDY    -6  -9  84 W3        30.24R
WARROAD        FLURRIES  -2  -8  78 NW7       30.23R WCI -16
CROOKSTON      PTCLDY     9   1  72 N17       30.29R WCI -10
FOSSTON        CLOUDY     0  -4  85 NW8       30.22R WCI -15
DETROIT LAKES  CLOUDY     3   0  85 N12       30.21R WCI -13
MOORHEAD       PTCLDY     9   3  78 N12       30.27S WCI  -6
PARK RAPIDS    CLOUDY    -1  -6  79 NW9       30.14S WCI -16
MAHNOMEN       CLOUDY     1  -3  84 N7        30.22R WCI -11
$$
MNZ006-009>011-018-025>026-091500-
   North Central Minnesota

CITY           SKY/WX    TMP DP  RH WIND       PRES   REMARKS
BAUDETTE       CLOUDY    -5 -10  79 NW7       30.19R WCI -19
FLAG ISLAND    CLOUDY    -2  -6  84 NW8       30.21R WCI -17
INTL FALLS     CLOUDY    -7 -11  83 NW8       30.14R WCI -23
WASKISH        CLOUDY    -9 -11  92 W7        30.19R WCI -24
LONGVILLE      CLEAR     -2  -8  78 NW3       30.13S
GRAND RAPIDS   CLEAR     -2  -9  71 NW18      30.08R WCI -24
CRANE LAKE     CLOUDY    -2  -6  84 NW8       30.12R WCI -17
ORR            CLOUDY    -4  -9  77 NW7       30.06R WCI -18
COOK           CLOUDY     0  -6  78 NW7       30.07R WCI -13
WALKER         FAIR      -3  -7  84 NW12      30.15S WCI -21
$$
MNZ012-019>021-037-091500-
   Northeast Minnesota

CITY           SKY/WX    TMP DP  RH WIND       PRES   REMARKS
DULUTH         PTCLDY    -2  -8  76 NW9       30.00S WCI -18
ELY            CLOUDY     0  -6  78 N3        30.02R
HIBBING        MIX PCPN  -3  -7  82 NW17      30.06R WCI -24
EVELETH        CLOUDY     3  -2  78 N8G18     30.05R HAZE    WCI -10
DULUTH HARBOR  CLOUDY     5  -2  72 NW8G16    30.10R WCI  -8
TWO HARBORS    MOCLDY     3  -4  72 NW7G21    29.98S WCI  -9
SILVER BAY     MOCLDY     1  -6  71 NW6       29.97S WCI -10
GRAND MARAIS     N/A      6  -4  63 CALM      30.00R
G MARAIS ARPRT CLOUDY    -2  -9  71 NW15G25   29.86R WCI -22
$$
MNZ029>031-032-039>041-046>048-054>057-064-091500-
   West Central Minnesota

CITY           SKY/WX    TMP DP  RH WIND       PRES   REMARKS
FERGUS FALLS   CLOUDY     3   0  85 NW13      30.28R WCI -14
WHEATON        CLOUDY     9   3  78 NW13      30.28R WCI  -7
MORRIS         CLEAR      3   0  85 NW16      30.21R WCI -16
ALEXANDRIA     CLEAR      2  -3  80 NW14      30.16R WCI -16
ELBOW LAKE     CLOUDY     3  -1  83 NW13G20   30.22R WCI -14
WADENA         CLEAR      0  -4  85 NW7       30.15R WCI -13
GLENWOOD       CLEAR      1  -2  85 NW16      30.16R WCI -18
APPLETON       CLEAR      7   0  72 NW14      30.24S WCI -10
BENSON         CLEAR      3  -2  78 N9        30.21R WCI -11
ORTONVILLE     MOCLDY     7   0  72 NW12      30.24S WCI  -9
MADISON        CLEAR      7   0  72 NW12      30.25S WCI  -9
WILLMAR        FAIR       5   0  78 NW10      30.19R WCI -10
$$
MNZ033>034-036-042>043-049>051-058-059-091500-
   Central Minnesota

CITY           SKY/WX    TMP DP  RH WIND       PRES   REMARKS
ST CLOUD       CLEAR      3  -4  72 NW17G24   30.13R WCI -17
SAUK CENTRE    FAIR       0  -4  82 NW8       30.16R WCI -14
PAYNESVILLE    CLEAR      2  -3  80 NW9       30.16S WCI -12
AITKIN         CLEAR      1  -8  66 NW8       30.10R WCI -12
PINE RIVER     CLEAR      0  -6  78 N9        30.16S WCI -16
BRAINERD       CLEAR      0  -6  76 N15       30.13R WCI -19
STAPLES        CLEAR      0  -6  78 NW12      30.15R WCI -18
LONG PRAIRIE   FAIR       1  -4  78 NW12      30.15R WCI -15
LITTLE FALLS   CLEAR      3  -4  72 NW8       30.15R WCI -10
LITCHFIELD     CLEAR      3   0  85 NW15G21   30.14R WCI -15
BUFFALO        CLEAR      5  -2  72 NW16      30.14R WCI -14
MAPLE LAKE     CLEAR      5   0  77 NW10G17   30.14R WCI -10
$$
MNZ037-044-045-052-053-091500-
   East Central Minnesota

CITY           SKY/WX    TMP DP  RH WIND       PRES   REMARKS
PRINCETON      CLEAR      3  -2  78 NW8       30.11R WCI -10
MORA           CLEAR      3  -4  72 NW15G21   30.10R WCI -15
CAMBRIDGE      CLEAR      5  -4  66 NW10      30.09R WCI -10
RUSH CITY      PTCLDY     2  -4  76 NW7       30.10R WCI -10
MOOSE LAKE     PTCLDY     1  -6  71 NW10G16   30.06R WCI -14
HINCKLEY       FAIR       3  -4  72 NW10      30.08S WCI -12
CLOQUET        PTCLDY    -2  -8  78 NW14      30.03R WCI -21
MCGREGOR       CLEAR      1  -4  78 NW12G17   30.09R WCI -15
$$
MNZ071>073-080-081-089-090-097-098-091500-
   Southwest Minnesota

CITY           SKY/WX    TMP DP  RH WIND       PRES   REMARKS
MONTEVIDEO     CLEAR      3   0  85 N10       30.24R WCI -12
GRANITE FALLS  CLEAR      7   1  79 NW16      30.23R WCI -12
CANBY          CLEAR      8   4  80 W12       30.26R WCI  -7
MARSHALL       CLEAR      5  -1  76 NW16      30.22R WCI -14
REDWOOD FALLS  CLEAR      5  -1  76 NW15G22   30.18R WCI -13
OLIVIA         CLEAR      9   1  72 NW16G22   30.17R WCI  -9
PIPESTONE      CLEAR      5  -6  61 N15G22    30.18R WCI -13
WINDOM         CLEAR      3  -2  78 NW23      30.13R WCI -19
WORTHINGTON    CLEAR      3  -4  72 N21       30.16R WCI -18
JACKSON        CLEAR      5   0  78 NW22G29   30.12R WCI -16
TRACY          CLEAR      5   1  80 NW18G25   30.19R WCI -14
SLAYTON        CLEAR      3   0  85 NW18G25   30.17R WCI -17
$$
MNZ065>067-074>077-082>085-091>093-091500-
   South Central Minnesota

CITY           SKY/WX    TMP DP  RH WIND       PRES   REMARKS
MANKATO        CLEAR      7   0  72 NW17      30.10R WCI -12
NEW ULM        PTCLDY     3  -2  78 NW20      30.14R WCI -18
ST JAMES       PTCLDY     5   0  78 NW17      30.15R WCI -14
FAIRMONT       CLEAR      5  -2  72 NW20G25   30.10R WCI -15
GLENCOE        CLEAR      6   1  78 NW13G18   30.12R WCI -10
FARIBAULT      CLEAR      3  -2  78 NW12      30.08R WCI -13
OWATONNA       CLEAR      3  -2  78 NW16      30.06R WCI -16
WASECA         CLEAR      5   0  78 NW17      30.09R WCI -14
ALBERT LEA     CLEAR      7   0  72 NW12G26   30.03S WCI  -9
$$
MNZ078>079-086>088-094>096-091500-
   Southeast Minnesota

CITY           SKY/WX    TMP DP  RH WIND       PRES   REMARKS
ROCHESTER      CLOUDY     5  -1  76 N15       29.99R WCI -13
RED WING       CLOUDY     7  -2  66 NW8       30.06R WCI  -6
STANTON        CLEAR      6  -1  70 NW15      30.06S WCI -11
DODGE CENTER   PTCLDY     3  -2  78 NW17      30.00R WCI -17
WINONA         MOCLDY    10   1  67 N13G23    30.04R WCI  -5
AUSTIN         PTCLDY     5   0  78 N16G24    30.01S WCI -14
PRESTON        CLOUDY     4  -2  75 N14G24    29.98R WCI -14
$$
ABBREVIATIONS USED IN REMARKS
   TC - TEMPERATURES IN CELSIUS
  WCI - WIND CHILL INDEX
   HX - HEAT INDEX
  VSB - VISIBILITY
$$



USA.gov is the U.S. government's official web portal to all federal, state and local government web resources and services.